Flag for Tunisia Weather past 2 weeks in Tunis, Tunisia

Now
93 °F

Passing clouds.


Feels Like: 99 °F
Forecast: 78 / 90 °F
Wind: 3 mph from Northeast

Location: Tunis-Carthage

Current Time: Sep 17, 2014 at 1:30:31 PM

Latest Report: Sep 17, 2014 at 1:00 PM


Visibility: N/A

Pressure: 29.89 "Hg

Humidity: 47%

Dew point: 70 °F

Location of TunisLocation

Historic Weather in Tunis — Graph

°F

Tunis temperature yesterday

Maximum temperature yesterday: 99 °F (at 1:30 PM)
Minimum temperature yesterday: 77 °F (at 3:00 AM)
Average temperature yesterday: 83 °F

Past Weeks' High & Low Weather Summary

 TemperatureHumidityPressure
High99 °F (Sep 15, 2:30 PM)94% (Sep 8, 3:30 AM)30.07 "Hg (Sep 8, 3:30 AM)
Low64 °F (Sep 4, 5:30 AM)28% (Sep 16, 12:00 PM)29.80 "Hg (Sep 2, 2:30 PM)
Average80 °F66%29.93 "Hg
* Reported Sep 2 12:00 Noon — Sep 17 12:30 PM, Tunis, Weather by CustomWeather, © 2014

Note: Actual official high and low records may vary slightly from our data, if they occured in-between our weather recording intervals... More about our weather records

Advertising

Tunis weather history for previous 24 hours

 ConditionsComfort  
Time TempWeatherWind HumidityBarometerVisibility
12:30 PM
Sep 17
91 °FPassing clouds.5 mph49%29.89 "HgN/A
12:00 PM90 °FPassing clouds.No wind55%29.89 "HgN/A
11:30 AM88 °FPassing clouds.5 mph59%29.92 "HgN/A
11:00 AM86 °FPassing clouds.6 mph62%29.92 "HgN/A
10:30 AM86 °FPassing clouds.3 mph62%29.92 "HgN/A
10:00 AM84 °FScattered clouds.5 mph70%29.92 "HgN/A
9:30 AM82 °FScattered clouds.5 mph74%29.92 "HgN/A
9:00 AM79 °FScattered clouds.5 mph84%29.92 "Hg5 mi
8:30 AM79 °FScattered clouds.5 mph84%29.92 "Hg5 mi
8:00 AM79 °FPartly sunny.2 mph84%29.89 "Hg5 mi
7:30 AM77 °FPartly sunny.3 mph89%29.89 "Hg5 mi
7:00 AM75 °FPartly sunny.2 mph94%29.89 "Hg5 mi
6:30 AM77 °FScattered clouds.No wind83%29.89 "Hg5 mi
6:00 AM77 °FPassing clouds.No wind89%29.89 "Hg5 mi
5:30 AM77 °FPassing clouds.No wind89%29.89 "Hg5 mi
4:00 AM75 °FPassing clouds.3 mph94%29.89 "Hg5 mi
3:30 AM77 °FPassing clouds.3 mph89%29.89 "Hg5 mi
3:00 AM77 °FPassing clouds.2 mph89%29.89 "Hg5 mi
2:30 AM77 °FPassing clouds.5 mph89%29.89 "Hg5 mi
2:00 AM77 °FPassing clouds.5 mph94%29.89 "Hg5 mi
1:30 AM77 °FPassing clouds.5 mph94%29.89 "Hg5 mi
1:00 AM77 °FPassing clouds.6 mph94%29.89 "Hg5 mi
12:30 AM77 °FPassing clouds.6 mph94%29.89 "Hg5 mi
12:00 AM79 °FPassing clouds.8 mph89%29.89 "Hg5 mi
11:30 PM
Sep 16
79 °FPassing clouds.5 mph89%29.89 "Hg5 mi
11:00 PM79 °FPassing clouds.3 mph89%29.89 "HgN/A
10:30 PM79 °FPassing clouds.No wind89%29.89 "HgN/A
10:00 PM79 °FPassing clouds.No wind94%29.89 "Hg5 mi
9:30 PM79 °FPassing clouds.No wind89%29.89 "HgN/A
9:00 PM79 °FPassing clouds.No wind89%29.89 "HgN/A
8:30 PM79 °FPassing clouds.No wind84%29.89 "HgN/A
8:00 PM81 °FPassing clouds.No wind84%29.86 "HgN/A
7:30 PM81 °FPassing clouds.5 mph79%29.86 "HgN/A
7:00 PM81 °FPassing clouds.5 mph74%29.86 "HgN/A
6:30 PM82 °FPassing clouds.7 mph62%29.83 "HgN/A
6:00 PM84 °FPassing clouds.7 mph58%29.83 "HgN/A
5:30 PM84 °FPassing clouds.8 mph62%29.83 "HgN/A
5:00 PM86 °FPassing clouds.8 mph59%29.83 "HgN/A
4:30 PM88 °FPassing clouds.10 mph55%29.83 "HgN/A
4:00 PM88 °FPassing clouds.12 mph55%29.83 "HgN/A
3:30 PM88 °FPassing clouds.12 mph59%29.83 "HgN/A
3:00 PM91 °FPassing clouds.14 mph52%29.83 "HgN/A
2:30 PM90 °FPassing clouds.14 mph52%29.86 "HgN/A
2:00 PM93 °FPassing clouds.13 mph44%29.86 "HgN/A
1:30 PM99 °FPassing clouds.7 mph31%29.86 "HgN/A
Weather by CustomWeather, © 2014

See weather overviewHow to use our weather pages